GFSSW_500_spd_000.txt.gz
Wind_Speed
53 42 54 45 47 49 54 51 53 49 44 42 38 37 36 34 34 27 21 33 31 33 37 37 43 37 35 36 36 30 27 24 24 22 23 26 27 22 21 26 26 28 30 28 30
32 30 35 42 44 46 48 51 54 54 51 50 48 46 44 45 43 36 33 45 42 40 39 39 37 36 38 35 32 28 24 23 24 23 24 26 25 22 23 24 26 28 28 26 27
23 25 28 29 32 39 44 45 46 51 52 59 58 53 53 54 51 37 42 47 41 40 42 41 40 39 31 30 26 25 21 24 22 26 24 24 24 21 23 24 25 27 25 24 27
29 31 30 30 29 28 33 37 39 41 43 45 44 44 42 40 37 31 34 33 33 37 34 32 32 32 29 28 26 27 20 19 17 19 21 23 23 20 23 24 24 26 25 23 26
33 34 34 35 34 32 30 31 32 33 33 32 33 34 34 32 17 33 27 26 26 27 29 29 29 31 31 25 27 21 17 19 21 20 25 26 19 18 22 24 26 28 26 23 26
39 38 38 38 37 35 34 33 32 32 32 33 34 33 30 17 25 34 26 22 26 28 29 25 28 35 31 23 24 24 21 16 18 24 24 24 16 19 21 24 27 29 25 22 25
41 41 41 40 39 36 35 35 36 35 34 34 35 33 30 18 28 33 31 28 27 29 28 28 32 32 24 23 22 24 22 22 17 20 23 24 14 17 20 24 28 25 22 22 26
29 29 31 34 36 41 43 41 40 38 37 37 37 34 27 28 32 32 33 30 28 27 26 31 33 31 25 26 24 27 19 20 21 19 24 27 13 22 18 19 17 19 20 23 28
31 32 31 30 29 29 29 32 34 34 36 37 37 35 31 28 31 34 32 30 30 29 29 32 34 36 28 25 24 16 12 15 19 24 29 27 18 20 20 16 15 17 20 23 24
38 37 35 34 32 29 29 30 31 30 30 29 27 26 26 32 34 32 29 30 31 31 33 34 33 29 27 24 24 19 25 26 26 20 30 25 21 23 20 16 15 16 17 19 21
41 40 38 38 38 37 36 35 35 35 32 29 27 22 20 25 29 29 28 32 32 31 30 32 34 23 21 24 22 26 30 31 27 22 30 27 28 24 22 17 13 13 17 22 23
45 44 41 40 41 41 41 44 43 40 33 32 31 26 25 25 25 27 29 32 32 26 27 31 22 21 28 29 30 34 37 37 29 25 32 33 29 25 23 16 10 9 14 18 19
52 51 49 47 45 42 42 45 45 43 40 36 35 30 27 33 27 23 24 28 28 26 28 30 19 24 25 27 32 34 35 32 30 29 30 35 33 26 24 18 12 11 13 16 21
59 57 56 56 55 49 46 47 47 45 46 40 39 34 33 35 31 24 24 24 26 27 27 31 27 28 28 29 31 31 27 31 32 31 29 34 33 26 23 18 20 16 14 17 20
66 64 62 61 61 59 55 54 54 47 51 47 44 41 36 37 23 26 24 26 24 20 25 21 25 30 32 28 30 28 29 33 32 31 30 33 33 27 20 21 23 15 11 18 18
73 71 68 66 65 63 61 59 60 54 58 53 47 40 39 37 32 30 31 29 24 25 24 22 27 34 35 32 31 31 33 35 34 32 30 28 27 26 22 21 15 11 15 17 15
78 76 73 70 69 68 66 64 65 66 59 57 55 44 36 35 35 34 36 34 30 25 22 21 16 26 34 34 33 34 34 33 33 29 27 20 25 26 20 14 10 10 12 16 12
83 81 78 75 73 71 72 71 72 66 61 58 60 50 43 38 38 35 35 37 34 31 26 24 23 18 23 28 30 32 33 33 31 28 28 25 26 27 16 13 14 16 13 13 11
91 87 83 78 78 77 78 78 72 67 60 57 61 56 47 41 39 39 38 36 34 30 28 27 25 19 23 24 27 31 33 28 30 28 29 27 23 17 7 11 13 12 11 13 7
101 97 91 84 84 83 83 77 72 67 66 61 63 57 50 41 41 40 40 38 35 32 30 30 29 22 24 27 30 33 30 31 31 28 24 23 20 8 12 9 13 17 13 9 5
103 103 97 89 90 89 86 78 76 73 70 68 60 57 51 47 43 42 41 38 36 32 31 32 31 26 31 33 32 35 36 33 30 28 22 22 12 6 14 16 17 13 10 9 4
72 93 101 93 94 93 85 78 80 77 75 73 66 61 56 51 47 45 45 42 37 34 36 35 35 36 32 34 36 37 36 31 30 27 25 24 8 8 5 13 18 7 6 8 4
50 59 78 90 92 92 83 82 80 78 75 77 71 65 60 57 53 49 48 46 42 39 40 38 39 37 35 40 38 39 37 35 31 31 28 24 12 8 9 12 16 13 9 5 5
32 37 53 65 76 85 81 82 82 77 78 76 72 67 64 61 57 54 53 51 46 42 42 42 42 40 38 30 31 34 35 32 32 34 29 22 14 9 13 13 16 15 9 8 6
29 39 37 44 57 64 81 82 81 80 79 77 76 71 67 64 62 60 57 54 48 43 45 46 42 39 36 33 31 30 30 29 31 30 34 20 21 16 19 20 16 17 14 10 8
28 36 41 32 41 42 60 75 78 80 80 80 78 73 70 67 66 64 60 56 51 49 49 48 45 43 41 38 37 37 36 34 34 32 31 24 24 15 15 21 17 14 16 13 11
17 42 33 26 16 35 41 64 73 78 80 80 78 75 73 69 67 66 65 62 57 55 53 52 50 46 45 41 40 42 41 37 36 35 29 29 21 21 22 26 24 22 14 17 18

GFSSW_500_spd_003.txt.gz
Wind_Speed
54 55 56 53 52 54 55 61 61 62 60 52 47 52 38 34 33 26 18 23 33 34 31 32 38 42 40 33 31 35 29 23 23 26 22 23 24 27 27 27 26 27 27 26 25
39 45 59 57 62 55 58 60 46 56 56 45 49 49 42 42 39 33 28 35 40 41 38 41 45 44 39 35 33 30 28 21 24 24 21 23 25 26 26 26 25 26 25 25 23
28 28 31 35 45 44 45 53 41 42 43 55 54 56 53 49 48 40 40 43 45 42 41 37 37 36 36 27 29 29 26 25 19 23 20 22 23 22 27 27 24 23 27 25 22
25 24 25 26 27 27 27 33 38 39 39 41 45 46 55 58 56 51 48 47 37 37 34 34 33 34 28 26 30 33 26 22 18 20 19 22 21 22 27 24 24 24 28 27 23
28 29 29 29 31 31 34 36 35 33 35 35 38 40 41 42 31 40 40 39 36 34 30 30 29 30 27 28 31 34 25 20 19 19 21 24 27 27 23 23 26 26 29 29 24
33 34 34 36 36 36 38 39 39 37 35 34 34 33 31 24 27 37 35 34 32 27 26 28 28 32 31 28 31 34 27 20 17 18 21 23 26 26 22 22 26 28 30 24 21
38 39 40 41 40 40 41 41 42 42 41 37 35 33 30 24 30 34 37 29 26 26 28 29 31 32 33 30 32 28 22 22 22 27 25 29 24 26 25 21 25 28 27 22 23
37 41 43 43 42 42 43 44 44 42 40 39 38 36 30 31 29 30 32 32 33 32 32 32 32 37 35 31 32 27 25 25 21 26 30 31 21 25 24 20 26 29 25 22 23
32 32 33 33 33 33 34 35 36 37 42 43 41 40 33 31 31 33 35 36 37 33 33 33 37 37 35 31 31 29 24 27 30 26 24 27 19 21 25 22 24 28 27 22 21
39 39 37 36 35 35 34 35 35 33 31 30 30 30 27 29 33 34 35 37 36 35 34 36 38 37 31 29 25 24 24 24 22 23 31 32 30 20 25 21 20 25 24 18 19
48 47 45 42 40 39 38 38 38 36 33 31 30 26 27 23 27 35 36 35 33 34 33 30 31 23 19 22 23 24 26 28 30 30 34 34 34 24 28 25 23 23 22 19 18
53 53 51 48 48 46 44 43 42 42 40 34 32 29 28 26 26 27 29 29 31 30 27 26 21 15 21 23 22 24 27 30 32 38 39 35 34 31 27 27 20 20 25 24 22
60 58 55 52 51 51 48 46 45 45 47 40 40 36 27 34 28 28 26 26 27 26 24 24 16 20 23 23 24 24 26 31 35 36 37 35 32 34 29 25 17 19 22 23 22
66 67 64 59 57 56 54 52 49 47 49 44 41 42 37 38 35 28 29 26 26 20 23 25 23 23 27 28 24 28 25 31 34 35 33 30 33 31 27 23 22 23 26 23 19
72 72 69 67 64 61 60 59 58 54 54 50 46 47 41 44 31 30 30 32 27 22 23 16 18 22 30 26 29 28 28 32 33 32 29 27 32 26 22 21 22 23 21 18 17
74 75 77 74 68 69 67 64 63 61 64 59 50 47 45 45 41 36 33 32 30 29 23 20 22 26 27 30 32 32 30 30 33 32 29 24 27 23 23 19 17 16 15 14 12
85 81 78 77 74 73 73 71 69 72 66 64 60 53 44 43 45 42 39 34 32 29 24 21 20 22 26 32 33 32 30 32 34 32 26 23 25 20 20 19 17 14 15 15 14
96 91 86 82 79 77 79 78 77 72 68 68 66 58 53 45 42 40 41 40 40 34 30 28 26 19 22 25 28 31 31 33 32 30 26 25 23 20 17 14 18 14 15 19 16
100 101 95 90 86 85 84 86 78 74 69 67 70 65 60 52 48 44 40 40 37 35 31 29 30 22 26 23 26 26 29 27 29 30 28 23 20 15 13 14 13 11 10 15 13
78 94 99 98 95 92 89 84 78 74 73 70 71 69 63 55 51 48 46 43 42 36 31 32 33 24 26 29 30 26 27 27 29 29 27 21 17 10 9 13 10 10 12 13 10
49 62 78 94 96 97 94 81 80 80 77 75 73 70 66 60 54 50 48 46 42 36 34 35 34 30 30 34 29 30 27 29 29 29 26 19 12 9 7 9 14 15 17 12 9
39 46 52 67 80 95 92 84 86 84 83 81 78 72 68 62 57 53 49 47 44 38 37 34 34 34 28 33 33 32 28 32 30 29 24 21 6 11 10 11 11 15 11 11 6
34 33 40 48 65 77 86 89 88 86 84 86 84 75 69 66 61 55 52 51 48 44 42 39 40 38 37 40 38 32 32 32 33 31 27 20 6 13 12 12 12 14 10 8 5
31 27 25 34 46 63 79 85 90 87 87 87 85 79 73 69 65 61 55 54 51 47 44 40 42 43 38 33 34 34 32 33 32 31 26 20 12 13 13 14 13 14 10 7 7
21 23 22 27 35 42 64 80 86 89 87 85 82 80 76 71 66 63 59 56 53 49 47 45 44 42 39 38 35 35 34 32 29 26 24 18 14 11 16 16 14 17 12 10 9
14 15 21 21 10 23 39 66 79 86 83 81 81 77 78 72 68 65 62 59 56 54 50 47 46 46 42 39 35 34 35 37 27 29 26 24 20 18 19 15 12 15 11 15 13
12 19 28 30 14 23 33 37 69 77 81 79 78 74 72 74 70 68 64 62 60 56 52 51 50 48 45 41 36 41 37 32 27 30 27 28 17 19 18 15 14 16 12 15 16

GFSSW_500_spd_006.txt.gz
Wind_Speed
47 61 57 57 54 55 52 54 52 47 45 46 52 48 46 46 36 39 45 30 29 31 32 31 32 33 38 41 41 34 29 24 19 21 20 24 22 23 26 28 28 30 30 29 27
52 55 59 55 56 55 56 56 55 60 57 55 56 52 50 47 44 41 38 30 34 32 36 38 38 39 40 41 33 31 24 22 22 24 20 21 20 25 25 25 27 31 30 26 26
24 35 49 61 58 65 61 76 61 57 58 58 60 60 57 66 65 44 40 38 40 39 41 44 40 38 40 36 34 28 23 26 25 25 21 20 20 21 24 27 29 34 30 26 28
22 23 25 26 34 44 47 60 60 69 67 64 59 40 40 44 49 45 51 46 43 47 51 49 43 34 34 33 32 29 25 27 23 21 22 21 23 22 26 30 33 34 29 29 28
24 25 27 28 28 29 28 29 28 26 27 27 30 40 33 33 33 47 44 45 51 50 44 41 38 32 32 31 31 30 26 30 27 21 23 22 22 23 26 29 30 30 30 30 30
30 30 29 30 31 32 32 32 32 33 34 32 35 37 33 26 29 37 33 30 34 40 41 40 37 31 28 28 31 32 29 30 33 24 20 23 25 24 27 26 24 26 30 29 31
37 36 36 36 35 36 36 37 38 37 37 38 39 40 35 21 29 32 31 27 30 33 36 37 33 31 28 31 34 30 32 31 26 26 28 30 27 28 29 25 24 25 29 30 31
42 42 43 42 42 42 42 42 42 42 42 41 39 39 33 30 32 29 32 30 32 32 29 32 32 31 31 35 29 31 32 26 28 29 36 35 30 24 26 25 25 25 27 30 33
39 39 41 41 42 43 44 46 46 46 44 44 43 43 35 31 35 34 31 31 33 33 33 34 34 34 36 33 30 32 27 25 27 32 32 33 27 21 23 32 24 27 27 29 31
43 42 40 39 38 37 36 36 37 37 36 36 34 34 33 36 34 35 33 33 34 35 37 37 36 37 36 33 28 27 28 29 26 31 26 24 29 25 25 29 28 28 28 25 29
52 50 48 46 44 43 42 41 40 39 36 33 31 28 26 28 32 37 37 36 37 39 38 37 38 35 26 24 23 28 26 26 25 29 28 30 32 28 30 30 28 26 26 26 29
59 58 57 55 52 51 49 48 46 45 41 37 35 30 28 25 26 29 31 35 34 34 33 36 33 20 24 26 27 24 22 23 28 30 34 34 32 32 30 29 27 24 22 23 28
67 66 64 61 57 57 55 53 52 50 49 42 39 38 32 31 29 30 32 28 26 29 31 28 21 26 25 27 26 20 20 22 28 32 35 34 29 30 25 26 24 22 25 24 30
70 70 70 69 63 61 60 57 55 54 53 49 42 41 39 37 35 31 31 29 29 29 27 31 29 32 26 30 20 24 20 23 28 32 32 30 28 28 25 25 23 23 24 25 28
77 75 74 72 71 67 66 63 59 57 57 54 46 44 43 43 34 33 30 34 32 27 31 24 29 21 29 23 26 24 26 27 29 30 31 24 29 24 24 20 18 19 22 24 18
88 83 81 78 75 74 71 69 65 62 63 61 55 49 45 43 40 39 39 37 33 35 32 29 27 29 30 29 31 28 29 28 27 30 31 22 26 18 16 18 14 17 20 17 14
92 92 89 84 81 80 78 75 73 73 66 68 62 54 50 44 42 43 43 41 37 34 35 31 31 32 30 31 24 27 27 26 27 26 23 24 24 17 19 19 16 18 17 16 16
81 91 94 91 88 87 84 82 83 70 72 72 66 63 60 50 46 42 44 46 43 39 32 34 37 27 23 23 21 26 25 25 23 21 14 24 20 11 21 19 17 18 11 11 11
54 61 80 92 91 92 91 91 74 72 76 72 71 72 65 60 54 48 42 44 44 42 40 35 32 26 28 24 27 29 27 23 24 25 26 18 18 15 16 16 15 15 11 11 10
46 47 53 63 76 77 88 90 78 75 80 79 77 74 70 65 60 55 50 47 44 42 42 40 36 32 27 30 34 31 26 24 22 23 21 11 9 9 12 15 16 16 13 10 12
40 41 38 44 55 63 76 88 83 82 84 82 81 76 73 70 62 58 54 49 46 40 39 42 38 37 33 40 36 33 28 23 26 23 17 12 9 16 15 17 16 18 14 13 11
39 36 31 36 43 53 62 79 85 91 89 85 85 79 75 70 67 62 57 52 50 46 41 37 38 39 35 34 34 36 30 29 28 26 24 20 11 18 14 18 14 15 16 12 10
27 27 28 25 34 40 46 62 79 90 89 90 87 81 76 73 65 61 58 56 52 49 44 42 48 44 39 46 44 40 34 31 28 28 25 18 6 16 17 19 14 15 14 8 5
28 29 28 28 32 29 39 51 68 86 88 88 89 87 79 78 72 63 61 60 56 52 48 45 46 45 45 39 36 37 33 31 29 28 22 20 12 18 16 19 14 12 13 8 7
27 29 27 24 24 31 26 34 52 76 83 83 84 80 79 76 71 65 62 63 58 55 51 49 50 48 44 40 42 38 35 32 33 26 27 18 12 15 18 20 15 9 13 8 10
4 3 12 19 20 21 26 30 43 59 81 77 78 74 73 76 69 65 62 64 62 60 57 53 50 50 49 45 44 41 39 37 33 25 26 25 17 20 23 22 14 11 14 9 13
6 11 11 17 16 12 12 21 34 45 65 77 62 61 76 73 73 73 73 69 67 64 59 57 54 53 52 47 43 44 42 37 33 26 26 22 14 25 26 24 17 13 11 10 14

GFSSW_500_spd_009.txt.gz
Wind_Speed
41 47 53 66 65 59 58 57 45 43 41 43 45 40 36 37 37 37 36 41 41 42 44 43 29 27 28 31 34 35 33 25 17 18 21 23 20 21 33 25 33 33 31 32 34
33 40 48 56 62 52 53 54 56 54 48 47 48 47 44 44 46 41 41 42 43 42 42 36 34 31 31 35 36 36 33 24 20 23 27 26 23 20 29 27 29 29 30 31 36
23 31 36 43 52 62 58 58 57 58 58 56 58 57 54 52 58 54 52 50 43 44 42 38 40 37 34 41 42 36 28 25 26 27 29 28 23 21 26 26 21 34 35 31 30
17 17 23 30 37 44 58 65 68 64 65 63 61 64 63 61 60 59 56 61 63 63 47 40 40 41 38 41 38 38 29 26 27 27 31 31 25 27 29 28 29 31 33 32 29
22 22 23 20 24 38 48 54 57 63 66 66 66 65 73 69 61 66 53 46 51 61 58 47 48 39 42 37 36 35 31 24 26 28 31 37 33 29 25 29 27 28 29 25 29
30 28 28 28 30 31 31 32 34 37 38 36 36 39 38 42 26 31 26 25 30 33 35 40 41 39 44 38 37 35 32 25 26 28 29 33 25 34 28 39 34 28 26 27 29
38 36 35 36 36 37 38 39 40 38 35 38 35 36 30 26 33 32 31 26 26 26 32 34 38 43 35 35 34 34 29 28 27 28 32 34 27 33 34 40 31 23 26 28 29
41 43 43 42 42 41 41 41 42 42 42 43 42 38 34 28 34 31 34 32 29 28 28 28 29 33 35 33 36 29 29 27 22 24 33 32 26 19 36 30 26 27 26 27 30
42 41 42 45 48 48 47 47 48 48 47 46 44 43 36 31 33 35 37 32 31 30 29 32 31 31 32 37 30 31 27 25 22 24 29 34 29 17 29 26 27 30 30 29 29
50 49 47 45 44 45 47 50 49 50 50 50 48 44 39 35 38 40 38 35 34 33 33 32 33 34 38 33 28 24 22 24 23 19 29 33 28 23 25 28 30 32 29 28 29
57 56 55 53 51 49 45 46 45 44 41 42 44 41 37 33 33 40 43 37 36 38 35 30 36 38 27 26 22 22 23 25 25 23 27 31 33 26 27 33 35 28 27 27 28
60 61 62 60 57 57 55 52 51 48 44 39 38 33 34 27 29 32 42 40 40 38 33 37 39 31 28 28 27 28 28 26 24 23 29 33 31 29 33 31 23 24 25 25 27
66 65 65 65 64 62 63 61 57 56 55 47 43 40 34 36 32 30 31 34 34 37 36 37 30 27 30 26 29 29 28 24 24 22 29 29 28 23 21 25 24 23 23 24 24
75 73 71 69 69 67 68 67 64 62 62 56 50 45 41 38 36 32 33 32 32 29 33 33 32 28 29 33 28 31 24 24 27 27 26 21 25 23 19 20 21 22 18 20 22
80 81 79 76 75 73 72 70 67 65 64 59 59 52 50 47 38 33 31 33 31 30 32 26 32 28 32 28 27 28 27 26 29 31 28 23 22 15 20 17 15 16 18 17 21
86 85 85 84 82 82 77 74 73 71 70 65 64 54 54 49 47 43 40 34 34 34 31 30 28 28 29 25 32 31 29 31 29 25 25 19 19 13 11 18 16 16 19 20 19
69 72 81 87 87 88 84 81 79 79 66 70 69 63 55 52 49 49 47 44 41 39 39 33 32 29 32 35 35 36 33 29 23 20 20 13 16 15 15 20 19 19 19 19 17
55 59 61 66 72 80 87 86 85 72 68 65 71 71 60 55 50 50 49 48 45 41 37 34 37 38 34 33 31 32 27 24 17 12 12 22 24 7 14 18 19 15 17 16 12
40 45 48 47 48 54 64 82 87 71 69 70 51 69 70 62 55 53 50 47 45 43 42 38 34 28 38 30 32 32 31 19 22 25 16 14 16 23 22 16 16 14 15 14 15
37 37 41 40 40 44 51 73 81 78 77 44 64 47 47 63 60 58 52 48 45 46 42 39 37 34 31 32 34 35 25 22 21 21 20 16 16 12 20 7 19 18 17 13 15
27 28 32 36 39 42 46 60 68 79 76 62 55 58 42 41 47 57 56 50 46 43 41 44 41 36 35 42 33 36 33 26 23 21 13 13 11 20 18 18 14 17 16 13 14
19 18 32 35 37 39 31 32 49 69 58 74 79 74 71 45 41 49 60 56 54 49 46 37 50 40 42 38 34 35 33 29 29 23 20 17 12 28 27 18 15 13 15 10 12
14 14 17 21 28 27 22 33 48 62 67 72 81 80 73 68 52 42 54 55 42 55 52 40 49 45 37 43 45 42 36 35 32 28 22 20 15 19 27 22 18 12 13 10 10
14 17 19 25 27 26 21 31 42 52 71 74 83 74 84 79 78 61 46 51 48 57 49 42 43 44 48 42 42 42 41 37 33 32 27 24 16 24 23 18 14 13 12 11 9
10 18 26 29 26 32 28 28 24 36 49 74 79 73 72 70 60 66 47 46 48 60 52 50 51 48 42 33 38 39 38 37 38 32 29 20 17 22 21 18 15 21 11 11 9
11 8 10 17 15 18 30 26 24 26 36 54 74 71 67 71 65 49 45 37 50 61 54 52 50 48 46 43 36 47 45 41 37 35 32 27 22 16 20 20 18 23 11 9 10
12 9 11 5 11 16 15 25 28 26 37 38 50 67 67 69 71 76 58 54 50 48 56 57 53 51 52 48 47 41 49 43 41 38 32 31 20 20 20 18 23 23 12 10 11

GFSSW_500_spd_012.txt.gz
Wind_Speed
35 38 40 45 54 61 61 64 61 59 47 48 50 47 46 45 49 46 48 45 39 40 44 46 45 39 36 27 25 29 28 28 26 13 21 17 17 25 32 35 32 37 41 37 32
40 40 44 45 50 53 55 62 64 62 57 51 50 50 50 48 45 46 40 37 33 36 37 39 42 38 38 37 32 31 35 30 23 17 26 28 33 32 29 27 25 27 43 40 36
33 35 37 39 44 50 55 59 59 58 57 61 55 50 49 51 49 44 40 38 37 40 44 46 43 46 41 39 31 34 36 31 25 25 30 29 29 27 26 31 33 37 39 47 31
30 25 24 31 38 44 52 61 64 63 60 60 60 58 56 57 58 55 50 45 47 51 52 54 54 56 44 36 31 37 33 30 32 25 29 25 24 27 32 29 29 39 34 40 43
30 24 26 23 24 32 40 47 53 62 57 57 65 66 68 70 63 61 60 60 59 56 57 60 62 60 64 55 46 40 31 30 34 30 24 23 25 30 29 30 32 39 36 31 25
32 26 30 32 31 28 27 28 41 50 57 60 63 65 64 61 55 59 64 64 61 56 54 58 56 53 53 52 36 36 35 32 38 25 21 24 28 33 23 32 36 31 29 25 27
40 33 38 37 37 37 36 34 32 33 34 40 52 52 49 37 55 55 55 43 31 25 24 22 24 33 32 34 36 37 36 35 32 23 24 24 31 27 24 32 32 31 26 24 29
40 42 47 47 44 43 42 43 42 39 41 44 43 42 35 24 26 24 26 25 22 28 27 27 29 32 35 34 35 35 35 36 23 21 23 29 34 33 22 27 32 36 28 32 31
46 46 46 46 46 47 47 46 47 47 47 48 45 45 38 32 33 33 39 33 33 33 32 29 32 31 28 31 29 30 33 29 21 19 19 30 37 33 27 22 30 32 32 36 34
50 51 51 51 50 49 49 49 52 51 52 51 50 47 42 36 39 39 39 35 34 34 35 32 31 31 30 31 20 22 24 19 17 11 21 33 30 33 33 25 30 31 38 37 30
57 56 55 55 56 55 54 52 51 53 54 53 52 52 49 46 42 38 40 40 38 39 36 32 34 33 26 18 19 22 17 19 15 20 17 19 20 34 33 31 28 28 33 31 33
64 63 62 60 59 59 60 58 58 57 53 47 45 49 43 49 41 37 40 42 41 41 35 35 37 26 24 24 27 25 24 23 23 22 29 29 29 36 29 20 19 22 22 24 29
72 72 69 67 65 63 62 64 63 63 61 52 44 41 32 38 33 32 37 35 35 38 41 37 26 27 28 29 30 29 28 26 22 24 26 26 31 25 18 23 23 26 26 21 23
79 79 77 76 72 70 68 67 69 69 67 59 52 45 41 37 35 29 34 35 34 31 37 33 30 33 31 34 30 31 24 16 22 26 28 21 27 23 22 17 20 26 28 19 19
80 81 80 81 80 77 74 73 72 70 70 62 58 54 51 48 38 35 33 35 33 30 33 25 30 34 33 31 28 27 18 21 26 28 27 29 30 16 11 11 20 26 34 27 18
59 64 70 74 81 82 80 77 76 74 70 63 61 62 59 53 48 44 38 40 34 34 33 30 29 30 28 26 26 22 23 25 31 26 31 23 21 13 4 16 21 27 35 26 19
51 54 56 55 58 67 77 79 74 80 64 64 61 68 61 58 52 49 50 46 43 43 38 34 34 31 29 30 28 24 29 33 29 28 28 13 16 11 10 24 33 30 17 26 20
37 36 39 44 46 52 55 61 77 75 69 61 52 44 62 66 58 49 54 48 47 42 38 37 37 34 28 29 31 32 35 31 30 23 9 15 24 16 25 22 24 19 16 20 18
35 37 35 35 35 38 47 58 73 73 69 66 40 38 44 51 62 55 52 51 48 47 44 40 35 27 31 31 31 35 34 25 27 20 22 17 14 16 26 24 30 23 16 16 16
36 34 29 29 32 36 43 50 57 64 59 60 66 47 42 31 36 53 56 53 50 48 45 41 34 32 23 31 33 35 27 31 27 25 25 19 16 19 27 27 25 29 23 17 15
32 22 19 23 27 34 35 31 32 47 59 61 64 67 53 44 35 42 54 52 50 48 48 44 38 32 30 40 36 36 37 36 26 23 18 9 9 22 31 22 28 34 19 13 14
23 10 14 15 19 30 23 23 34 47 54 64 64 78 62 54 50 54 42 55 51 50 49 47 48 42 37 34 35 28 33 35 30 24 23 20 18 22 23 27 29 31 16 16 13
11 4 16 11 14 17 23 26 32 42 46 71 64 79 74 63 54 53 46 40 54 49 51 44 52 50 39 32 43 39 35 33 32 29 22 24 19 24 28 27 24 24 16 9 12
7 7 12 16 17 20 21 23 26 34 46 72 65 70 81 71 66 56 51 46 34 39 53 43 47 51 49 41 42 42 38 35 36 38 31 25 14 22 29 22 25 18 14 8 11
5 8 14 22 26 30 29 28 26 21 24 57 64 67 72 82 77 62 59 57 53 45 41 42 52 48 43 39 38 41 40 36 39 35 32 21 25 23 21 21 16 24 16 9 11
7 9 10 10 15 23 19 20 31 23 22 52 74 65 65 81 78 74 66 59 56 53 40 45 54 51 46 41 38 41 40 38 36 35 35 28 25 22 23 19 14 27 21 8 11
10 13 10 11 11 10 10 14 22 28 23 26 62 68 68 78 77 79 72 63 63 65 52 46 51 55 53 44 45 40 39 42 36 35 35 31 24 24 18 20 22 25 20 6 10

GFSSW_500_spd_015.txt.gz
Wind_Speed
36 37 39 44 49 52 54 57 64 62 63 55 59 54 47 47 45 43 41 38 38 40 38 41 38 34 39 37 34 36 35 38 27 25 18 16 17 26 26 30 38 42 42 37 38
39 41 36 37 42 47 52 53 56 60 62 61 64 57 48 53 50 48 45 44 39 45 44 42 37 36 38 35 34 38 45 32 28 25 21 21 25 29 30 31 37 38 41 40 36
38 43 43 42 45 48 52 52 52 55 63 64 65 61 62 55 54 49 49 48 47 44 43 39 36 38 41 41 40 41 40 32 26 26 17 19 19 20 29 30 30 34 34 33 32
31 36 43 44 45 46 51 52 50 55 60 62 63 66 66 62 61 54 50 47 43 43 43 40 40 45 48 49 47 55 54 39 28 30 23 17 18 18 28 27 28 33 31 29 32
34 29 34 44 41 41 41 45 46 51 55 59 59 61 64 66 61 52 51 50 48 48 49 50 49 50 56 56 56 57 56 51 46 40 27 23 18 25 27 20 29 31 32 26 25
39 42 38 34 40 37 40 37 38 43 48 54 57 62 64 58 50 56 56 56 56 59 58 61 56 59 64 66 66 61 60 47 31 32 29 21 24 26 22 20 29 33 31 25 25
44 43 42 43 42 44 34 36 39 35 37 43 51 61 56 48 53 55 62 63 62 66 68 64 63 61 49 45 36 31 28 28 29 31 17 22 26 19 19 23 29 36 30 26 22
48 48 47 46 46 49 42 43 42 44 43 37 36 38 41 36 48 55 56 60 61 56 43 34 37 37 28 29 23 25 28 28 25 18 11 16 21 19 28 29 29 34 27 27 34
50 51 50 51 50 52 49 50 50 49 47 47 42 35 25 27 32 41 50 29 29 26 19 29 28 31 34 27 24 24 23 23 10 9 11 10 21 20 27 32 31 27 31 33 34
58 57 57 56 54 55 56 54 54 50 53 51 49 44 35 33 33 33 37 34 36 35 35 36 38 38 32 29 21 20 22 17 6 5 9 14 32 26 29 30 32 32 37 38 35
67 65 63 62 62 59 57 59 59 58 55 50 51 47 46 45 38 38 42 44 44 45 39 38 44 37 27 23 24 24 25 17 12 7 20 23 18 23 18 29 31 34 26 20 26
72 72 70 69 67 66 63 61 62 64 60 54 49 45 46 49 45 43 44 46 48 45 40 41 38 30 24 27 28 26 23 21 16 13 22 19 21 22 20 34 34 24 25 26 21
79 79 78 75 73 72 69 67 66 67 66 60 54 48 42 48 48 45 45 49 50 50 47 43 34 29 32 31 32 26 25 18 22 19 26 23 32 33 34 30 25 21 23 27 27
81 79 76 78 79 77 75 72 70 69 67 62 58 52 48 44 40 39 37 45 51 51 45 41 36 37 37 35 32 29 20 21 23 21 29 30 33 28 20 20 15 16 28 28 34
60 62 61 64 71 75 78 75 72 69 69 63 58 58 53 52 40 35 32 36 39 35 36 30 25 33 35 29 28 23 22 21 16 12 18 26 29 15 16 16 14 20 28 32 39
38 39 41 43 44 55 65 71 72 69 69 67 63 57 56 53 50 44 37 38 36 36 35 29 24 33 31 28 28 20 22 20 13 16 29 27 27 7 8 11 19 24 30 35 40
39 40 41 41 41 46 48 53 59 74 66 64 59 60 58 51 47 49 50 46 41 38 35 30 29 29 28 32 31 27 15 24 26 31 29 19 24 3 7 11 17 23 25 29 17
39 39 37 31 30 35 36 43 62 68 65 63 44 41 50 38 54 44 45 49 46 38 35 34 35 32 29 31 32 27 27 30 31 30 15 9 15 16 14 12 16 23 24 26 18
26 26 24 29 33 35 34 40 48 49 58 61 48 49 41 34 29 21 46 46 46 43 40 37 35 28 29 28 29 30 32 22 27 26 18 11 13 13 14 17 21 27 24 31 19
27 25 29 30 30 34 34 27 27 37 41 45 59 62 55 51 42 39 30 53 45 44 43 41 38 28 28 27 29 33 26 34 35 32 27 21 18 14 20 24 29 29 25 30 19
29 21 23 18 16 21 21 19 18 29 34 45 66 67 63 60 56 49 53 52 48 47 44 43 41 34 30 35 33 34 38 38 34 28 22 18 16 19 19 22 27 24 27 30 19
19 9 10 6 12 9 10 14 21 26 33 45 58 72 66 64 65 52 53 55 42 44 50 45 45 43 39 30 27 31 38 41 39 27 23 17 13 14 18 22 22 19 25 23 12
10 6 4 4 11 9 9 14 21 24 31 39 53 75 64 64 64 55 55 54 47 41 47 44 49 47 42 38 35 33 33 35 39 30 24 22 17 26 20 23 27 22 20 17 10
7 8 3 14 9 14 18 14 15 20 27 34 47 56 68 68 67 65 62 59 52 51 53 38 45 54 49 45 39 39 36 33 40 37 29 24 17 24 26 26 23 20 15 12 10
5 3 10 13 20 23 25 24 24 21 24 25 39 53 64 69 70 70 70 63 58 57 49 44 48 52 49 45 42 39 37 34 31 32 33 22 20 31 20 18 22 23 18 8 7
9 8 11 11 15 14 22 19 21 27 25 18 32 49 63 68 65 70 72 67 61 60 53 49 50 49 50 51 49 44 40 36 32 35 35 27 24 27 19 22 24 27 20 4 3
17 10 10 11 11 5 5 7 11 16 22 23 24 38 51 65 61 64 73 73 67 65 59 58 59 46 55 51 50 49 50 41 33 32 31 32 25 29 31 30 29 31 18 5 3

GFSSW_500_spd_021.txt.gz
Wind_Speed
29 31 32 34 34 36 38 40 43 47 51 52 58 59 59 55 54 55 40 41 46 47 42 43 43 44 47 50 45 39 42 33 35 35 33 25 29 32 36 35 36 41 41 33 32
32 34 35 39 41 41 42 41 43 43 46 53 59 61 63 61 55 52 39 52 51 51 50 41 41 43 45 48 46 44 41 36 38 38 36 33 32 32 38 35 31 35 32 34 30
37 39 41 42 43 44 43 43 43 48 49 49 53 63 68 64 58 49 51 52 53 55 49 43 43 50 50 49 44 42 46 43 42 41 40 42 36 40 39 32 26 35 35 31 25
36 39 41 43 45 45 48 49 47 49 51 50 46 50 60 64 63 57 56 55 56 62 57 55 50 51 52 50 43 51 49 48 46 42 45 44 48 46 45 40 35 36 34 28 24
37 40 42 44 45 48 49 50 50 48 49 50 51 51 51 57 55 56 56 57 58 60 58 58 50 52 55 51 48 57 53 51 51 49 46 50 53 54 45 37 30 36 32 19 25
38 41 44 46 48 49 51 52 51 48 48 50 56 58 60 57 49 54 58 62 65 62 63 63 53 54 57 55 57 53 55 55 53 52 52 55 59 55 28 23 32 34 25 21 21
47 48 49 50 50 51 53 54 54 53 52 51 47 55 61 48 46 49 62 60 65 67 64 61 57 59 59 58 59 59 60 59 55 49 55 53 51 27 11 22 29 24 18 17 15
53 56 58 59 60 59 58 57 57 58 57 56 55 53 42 47 49 47 49 58 60 63 64 62 61 64 65 61 63 62 60 53 42 45 24 35 17 12 17 27 26 19 17 16 16
62 64 66 67 68 68 67 65 63 60 58 59 57 55 45 47 47 37 45 51 62 62 63 65 68 70 67 65 65 62 49 48 38 21 25 32 19 18 26 26 20 20 19 14 13
70 73 75 77 78 77 75 73 71 68 63 60 59 56 53 50 51 47 42 42 55 66 67 68 69 68 65 66 56 47 50 32 14 12 27 32 28 24 24 23 25 19 14 16 15
82 85 86 85 86 86 85 81 79 75 69 66 63 58 57 56 51 51 45 42 40 61 69 71 70 62 60 49 47 53 36 22 13 16 30 33 37 20 23 19 17 20 16 12 15
95 91 83 76 79 91 88 87 86 82 76 71 67 63 58 60 54 54 49 46 41 39 54 65 61 55 53 52 50 30 25 15 14 19 35 31 31 26 26 22 21 17 12 15 15
65 61 59 58 59 65 75 88 86 85 83 74 73 68 63 64 62 57 52 47 46 42 39 43 37 48 48 40 36 33 27 21 16 23 36 34 30 27 25 25 19 14 14 14 15
48 47 43 39 39 42 49 54 65 78 82 77 73 76 72 69 67 57 54 49 50 46 39 39 32 35 35 36 37 37 30 26 24 31 35 40 36 31 28 25 17 13 15 13 10
36 35 35 35 32 34 34 36 44 53 65 64 74 77 77 73 68 58 54 51 49 50 46 40 39 41 42 37 38 37 30 29 28 32 40 40 43 19 29 15 13 10 7 6 9
36 34 31 33 34 31 29 29 30 35 51 44 58 63 75 76 72 66 60 55 52 47 47 49 46 43 40 39 40 36 34 36 37 38 47 35 37 15 15 11 13 7 5 8 12
39 38 35 30 30 29 30 30 30 31 26 35 44 56 70 72 73 73 61 62 58 52 55 56 57 53 47 47 46 45 43 44 44 47 51 27 34 9 21 16 15 10 3 6 12
37 36 33 30 28 25 23 30 34 30 26 36 38 44 52 57 61 70 66 60 59 51 49 49 56 56 55 52 48 45 42 49 51 49 43 29 29 15 19 22 11 8 3 6 12
35 34 31 29 27 24 22 25 29 27 34 43 35 36 46 51 52 60 62 65 61 54 52 49 47 43 43 44 44 44 47 45 45 43 36 33 23 26 26 16 9 4 1 5 14
32 30 27 24 19 19 20 22 24 25 35 30 43 34 38 46 52 54 60 66 67 62 55 50 42 39 36 39 38 40 46 44 42 41 39 31 26 26 24 13 6 3 2 6 13
32 27 19 7 2 6 12 17 28 34 35 30 31 51 39 48 56 61 65 70 70 66 61 55 45 36 41 42 40 42 43 43 37 37 36 27 27 21 21 16 10 4 2 9 15
30 17 8 9 3 3 9 12 6 19 30 24 27 56 44 49 58 60 69 72 72 70 68 60 54 42 36 39 36 38 39 34 34 33 29 26 25 24 22 13 9 5 2 11 11
25 14 3 2 5 3 7 9 9 4 12 20 25 45 57 47 55 58 65 73 72 74 72 67 60 50 43 45 42 41 36 35 33 32 33 29 22 26 21 12 10 7 2 7 10
24 20 11 5 14 11 8 12 10 8 8 11 20 29 50 54 57 60 60 68 70 73 75 72 65 57 51 45 43 40 40 40 35 33 25 25 24 26 16 12 11 9 5 6 12
25 23 16 15 15 8 10 16 18 15 12 12 14 19 32 55 56 65 55 67 64 71 74 74 68 60 54 48 43 44 39 38 35 30 32 22 27 25 18 16 11 10 5 4 11
26 26 17 12 13 11 8 8 7 8 6 13 14 20 24 36 57 55 56 67 59 68 71 71 69 66 59 51 48 46 43 40 36 33 28 27 28 25 21 17 15 10 7 6 9
23 24 23 10 6 6 6 4 8 7 11 10 8 16 21 22 45 58 59 58 56 67 71 70 67 68 62 55 51 56 51 44 36 31 26 30 29 29 24 19 13 9 6 7 9

GFSSW_500_spd_024.txt.gz
Wind_Speed
27 27 27 28 30 36 38 41 42 40 40 45 49 53 55 59 65 59 57 52 58 58 37 44 42 44 44 39 43 44 48 42 31 32 30 36 37 36 37 37 36 37 40 36 33
30 31 32 34 34 34 37 37 38 39 42 46 49 53 57 56 55 55 53 53 56 54 47 43 49 50 51 50 50 51 50 46 35 39 36 39 35 36 40 38 34 40 41 38 37
32 34 37 38 39 41 41 44 46 47 48 49 49 49 51 55 55 54 56 55 52 53 48 44 49 50 53 50 44 46 48 39 40 36 42 38 40 44 42 41 36 45 46 42 42
35 37 39 40 42 45 47 49 49 50 50 51 50 49 51 52 54 57 59 57 55 53 50 49 53 56 57 55 46 51 49 47 42 39 44 43 44 40 44 44 44 47 55 39 44
35 38 41 44 46 47 49 50 51 52 53 52 53 52 51 55 53 53 54 62 61 57 56 54 60 59 57 56 53 54 50 50 51 47 46 47 44 51 48 44 52 58 49 35 36
38 40 41 44 47 50 52 54 55 56 55 56 55 57 57 50 50 48 46 53 63 59 60 60 61 61 61 62 60 53 54 54 55 52 49 46 50 56 47 52 58 51 34 31 33
45 47 49 51 52 54 54 55 59 60 60 60 61 60 57 44 46 47 52 49 52 62 65 65 65 67 63 61 60 59 59 58 55 53 48 52 54 50 46 44 41 32 27 26 31
52 55 57 59 60 61 62 64 65 63 63 65 65 62 56 50 46 46 51 53 53 54 57 66 69 69 70 67 66 63 62 61 54 52 47 48 57 43 33 34 31 30 27 26 24
59 62 65 67 69 71 71 73 72 71 70 69 66 66 60 58 54 50 48 49 53 56 59 63 72 73 74 72 70 69 61 55 52 48 44 52 55 28 25 30 33 29 22 25 24
64 68 72 75 78 80 82 84 83 81 79 77 75 70 66 63 60 60 56 51 54 53 58 63 68 72 70 73 65 59 56 51 52 42 45 40 42 30 25 36 31 21 23 23 23
71 74 78 82 86 90 92 89 92 92 88 85 80 76 73 70 66 64 56 57 54 53 53 55 63 65 58 61 64 64 61 54 48 40 40 35 40 27 26 34 25 25 25 26 21
77 82 86 90 89 80 79 80 82 85 93 92 89 84 79 77 72 69 63 57 58 57 46 50 52 51 62 67 64 64 60 50 35 21 33 29 33 28 22 26 30 27 21 19 17
84 84 79 67 61 57 59 61 63 67 75 80 89 89 86 83 79 72 69 59 58 58 50 46 36 36 53 62 63 58 49 38 24 29 32 32 35 28 20 28 31 26 23 20 13
70 60 55 52 51 48 47 43 45 51 59 64 69 78 89 89 84 75 71 62 60 51 46 46 42 38 42 47 55 53 42 37 30 32 31 32 38 28 22 29 29 22 21 16 14
50 49 49 48 43 42 38 35 35 35 44 37 51 66 75 86 84 76 70 66 61 52 51 45 40 38 36 36 37 41 37 34 30 33 38 35 41 19 26 31 24 18 16 13 11
48 47 45 43 40 37 34 35 34 33 33 26 35 36 59 74 82 81 71 69 63 57 51 49 44 40 32 27 28 32 37 34 31 32 45 33 38 16 23 25 19 23 14 11 8
47 47 44 39 35 36 32 32 32 36 27 30 31 24 40 54 63 77 74 70 64 61 57 55 52 46 39 34 35 35 36 38 39 44 48 28 39 17 9 16 23 20 15 11 8
45 44 41 37 34 30 31 32 32 29 32 33 22 25 32 38 51 62 66 67 60 57 60 55 52 51 47 42 40 37 38 39 41 39 40 30 38 19 14 19 24 22 18 12 8
42 43 40 35 33 26 26 29 25 24 30 32 27 34 24 30 43 55 59 62 65 60 60 58 54 50 50 44 42 41 45 39 40 41 44 36 36 23 18 29 19 16 20 11 4
41 39 31 23 17 9 12 16 21 21 21 28 30 36 29 30 39 51 59 62 64 64 61 60 56 52 51 45 48 46 42 43 44 46 45 41 33 19 28 30 16 20 17 7 3
36 35 19 14 9 8 6 8 16 23 27 24 28 34 41 27 41 46 59 64 64 65 62 62 62 53 48 55 50 51 53 52 47 48 45 42 25 22 32 24 20 15 11 7 4
33 32 19 12 4 3 7 12 15 10 14 20 21 27 38 40 38 42 56 59 64 66 67 64 64 55 47 42 43 44 46 43 45 43 39 32 22 23 28 23 21 15 12 2 2
30 33 24 8 5 10 5 9 14 16 14 6 18 26 32 40 43 40 50 46 64 68 69 68 65 55 52 44 44 46 45 42 42 42 40 28 20 22 28 27 23 20 11 4 3
31 29 27 19 15 9 13 12 12 17 17 11 7 21 27 34 48 37 48 44 58 67 70 70 66 59 54 45 40 45 46 43 44 41 32 23 20 25 27 25 22 16 10 5 1
32 28 30 16 10 10 10 10 11 14 16 12 10 11 21 24 39 44 44 44 49 65 71 69 66 61 55 50 46 47 40 39 42 33 29 24 25 26 27 21 18 17 12 5 3
32 30 30 18 10 9 9 6 9 8 10 11 7 12 13 14 25 45 44 45 46 53 69 71 69 65 57 53 49 51 48 45 41 33 28 26 32 28 26 24 21 17 14 7 0
31 29 23 21 16 12 7 8 12 10 14 12 12 10 12 15 16 22 50 46 45 51 64 73 72 69 62 57 52 55 49 46 43 35 31 32 31 31 29 25 21 18 16 9 5

GFSSW_500_spd_027.txt.gz
Wind_Speed
26 28 28 29 30 32 35 43 45 45 44 54 61 57 57 55 62 56 44 40 47 54 54 50 47 48 41 47 47 45 49 43 38 36 35 35 38 37 38 41 39 34 37 39 39
28 29 30 31 33 33 34 36 40 47 48 47 49 52 56 56 54 65 58 55 54 58 59 55 54 58 51 47 50 47 50 44 37 39 41 40 42 43 39 43 37 36 37 42 44
29 30 32 33 34 36 38 38 38 43 43 45 47 49 50 48 49 52 59 60 63 66 60 58 61 60 54 49 53 54 56 43 42 40 46 45 42 41 39 40 30 42 42 43 49
32 33 35 36 38 39 41 42 44 43 43 45 45 47 48 49 52 53 55 61 64 65 64 64 61 55 50 52 44 58 55 48 41 43 48 45 44 37 46 38 33 45 48 48 50
31 32 35 37 40 43 45 46 47 47 48 50 52 52 53 53 51 54 52 51 55 60 64 65 62 55 53 47 47 53 51 52 52 52 47 47 42 41 41 35 43 50 50 55 56
35 37 39 40 43 44 46 47 49 52 53 54 54 54 53 52 52 54 53 50 54 57 64 66 66 60 58 55 52 51 56 55 54 54 47 46 44 46 34 39 49 53 55 58 57
43 44 45 47 48 49 51 53 54 55 55 56 58 59 57 52 54 52 57 55 54 59 59 66 68 67 63 59 58 58 59 60 58 49 46 45 48 47 39 42 51 54 54 58 46
49 50 51 53 54 55 57 58 58 59 61 62 63 61 59 59 57 56 56 55 54 55 56 62 70 69 68 63 63 63 64 66 57 50 48 48 47 45 39 44 53 53 49 46 33
54 56 57 59 62 63 64 66 67 67 67 68 67 67 64 65 62 61 58 57 56 56 57 56 60 67 70 69 68 69 68 63 54 50 51 51 47 41 40 48 52 37 43 31 20
54 57 59 63 65 68 70 71 70 71 72 74 73 72 71 71 71 65 63 62 58 58 59 61 62 62 63 67 62 57 55 55 54 56 56 53 44 43 39 46 45 34 33 24 22
59 61 65 68 70 73 75 77 79 80 80 79 79 81 77 80 78 75 70 67 64 61 60 58 61 57 58 58 62 64 64 62 59 59 56 49 46 46 40 34 38 35 28 24 22
65 69 73 76 79 82 84 86 86 85 83 81 82 83 81 84 84 83 81 73 68 66 63 62 59 43 46 60 59 60 63 64 64 59 55 53 49 46 27 33 31 30 25 21 18
73 77 79 79 77 76 74 68 67 69 82 68 68 75 73 80 86 88 88 81 72 69 68 67 49 44 45 48 51 53 58 56 56 55 52 51 48 41 26 29 27 27 24 20 19
78 74 68 60 56 55 53 53 53 54 60 53 53 55 65 73 79 86 88 86 80 71 67 64 54 56 52 49 48 47 44 46 47 55 48 47 50 46 25 29 25 22 22 19 21
64 58 52 49 45 47 48 48 47 47 45 41 45 44 47 57 70 76 83 82 78 73 69 63 61 59 54 46 37 34 37 38 45 54 47 42 52 26 23 24 20 20 20 22 19
52 47 44 45 46 44 43 42 40 38 37 33 36 30 32 40 50 57 69 76 72 66 63 61 58 54 48 46 36 33 35 34 37 39 50 39 49 25 15 16 19 18 22 22 21
44 43 44 44 43 42 39 35 33 35 28 30 31 30 28 28 34 39 57 62 72 71 65 63 63 57 52 48 42 42 39 39 39 40 42 40 42 9 7 7 12 22 28 20 24
41 40 40 40 37 30 28 30 29 27 24 28 28 23 21 18 20 32 45 54 62 67 63 65 65 61 54 48 41 36 36 40 39 38 42 23 39 19 15 18 17 23 21 22 20
35 35 38 34 23 21 19 17 18 18 21 22 21 27 22 25 21 26 36 50 59 66 68 65 65 57 53 47 42 35 42 30 31 35 32 29 29 18 16 18 18 19 15 23 17
33 36 34 30 18 15 16 12 9 12 18 19 18 25 25 31 22 30 32 42 60 68 68 65 66 60 54 50 47 42 28 34 39 38 35 27 28 16 16 18 23 11 19 22 19
36 36 33 23 10 6 12 13 18 17 11 15 18 17 27 32 35 27 27 35 50 65 64 63 66 64 59 55 52 50 47 47 41 38 35 29 26 13 15 20 20 15 22 22 19
37 36 27 22 9 5 6 11 16 21 21 12 11 18 25 28 33 26 45 27 39 61 65 66 65 60 57 54 50 48 43 38 37 37 34 31 21 15 19 25 17 20 20 17 15
37 37 30 17 11 11 7 14 17 19 18 14 11 8 14 20 29 28 33 31 37 53 66 67 67 59 57 57 55 51 47 47 47 44 41 36 25 19 21 25 20 24 22 17 12
39 35 30 19 14 7 10 13 14 14 16 13 10 7 10 17 21 32 29 45 36 42 55 67 65 64 58 51 49 52 54 49 47 45 42 33 20 19 21 26 24 25 22 15 10
41 41 33 26 19 12 8 11 14 12 13 12 11 7 4 9 16 21 32 40 33 46 49 65 65 63 57 56 51 49 50 50 48 43 39 26 20 24 26 28 27 25 21 14 9
36 38 38 28 22 18 13 11 11 9 11 13 9 10 7 6 11 12 34 32 35 40 49 60 64 63 54 55 55 49 46 47 46 41 30 26 30 30 32 27 26 26 21 13 11
33 36 37 29 28 25 21 19 16 12 12 11 7 7 8 7 8 12 21 35 37 38 47 55 63 63 57 56 55 55 44 45 45 35 33 35 32 32 30 29 27 26 19 16 11

GFSSW_500_spd_030.txt.gz
Wind_Speed
27 28 26 28 31 34 37 41 44 45 44 57 61 59 58 61 53 48 42 41 51 48 47 39 36 41 47 47 46 44 45 44 40 34 29 36 36 41 43 44 43 42 37 38 39
24 26 28 29 29 32 34 37 40 43 46 45 50 55 57 63 64 64 60 57 57 52 48 48 45 46 47 46 50 48 48 46 40 42 35 43 42 45 44 45 41 40 41 40 41
26 28 30 31 32 34 35 35 37 40 41 44 49 52 53 59 67 69 67 65 67 60 58 56 51 52 54 54 57 56 53 48 42 46 46 50 43 47 45 47 39 36 41 42 45
28 30 32 33 34 35 37 39 38 38 41 43 44 48 52 56 55 60 64 69 68 67 68 65 58 57 59 60 55 59 56 55 50 48 53 55 50 52 42 44 38 40 41 42 44
30 32 34 35 37 38 39 39 40 42 43 44 44 45 47 51 50 51 53 56 59 61 66 69 68 63 62 59 62 66 65 55 51 48 53 54 52 47 47 44 42 43 41 45 45
33 35 36 38 40 41 43 44 45 45 46 47 47 48 49 47 49 52 53 53 52 56 58 63 67 65 65 68 64 58 58 55 55 49 50 58 51 49 50 41 41 43 42 42 48
37 39 41 42 44 45 47 48 49 50 51 51 53 53 51 48 53 56 57 58 56 58 59 63 65 64 61 61 62 63 61 65 55 53 49 48 51 48 49 43 44 39 43 46 47
45 46 48 49 50 51 52 53 53 54 54 55 56 57 56 56 55 56 59 59 59 59 61 59 60 61 64 62 61 61 62 65 60 56 49 52 50 43 45 42 42 40 41 47 44
50 51 52 54 55 56 56 57 59 60 61 62 62 61 59 61 61 62 61 59 62 63 61 62 64 64 63 64 65 61 56 56 60 63 61 55 48 48 50 39 42 41 44 42 36
53 54 56 58 60 62 63 64 64 65 65 66 68 66 66 67 67 68 67 66 65 64 66 65 66 63 61 60 51 53 61 57 61 50 64 56 47 50 52 46 41 43 44 40 26
54 57 59 62 62 64 66 68 70 71 70 71 71 69 67 68 69 71 72 72 71 69 66 66 70 63 52 51 54 59 60 57 54 56 64 53 47 49 53 45 40 45 45 35 26
59 61 64 67 70 73 75 75 77 76 74 74 75 77 74 77 74 72 74 77 76 73 69 74 72 48 51 55 54 55 55 56 57 57 57 57 60 57 54 48 42 46 41 30 25
65 68 71 72 73 75 73 73 74 77 81 73 76 80 81 80 80 73 75 78 79 80 78 76 60 56 53 55 54 46 47 49 51 51 57 59 60 49 51 50 41 43 32 28 24
69 65 60 58 58 56 56 55 54 53 67 66 68 63 71 77 77 74 73 73 77 78 78 78 64 63 57 57 50 50 48 42 40 44 51 46 55 46 43 38 37 31 31 26 22
57 53 50 50 46 47 49 46 46 45 48 51 46 45 49 52 59 63 65 68 73 73 74 75 73 69 66 57 55 49 46 41 42 46 49 49 52 36 37 34 20 28 28 25 19
47 43 41 41 41 43 44 43 41 39 36 28 34 30 29 33 38 43 52 57 66 65 71 74 71 70 64 63 55 47 48 44 44 46 52 42 49 42 27 10 23 26 26 21 21
36 34 36 41 42 41 33 30 26 25 24 20 19 25 27 29 30 31 36 45 53 61 69 71 77 71 66 64 57 55 53 51 53 53 51 39 44 37 14 23 23 24 20 19 22
33 35 38 41 36 24 21 16 16 17 18 23 25 20 17 24 24 26 28 31 40 51 58 65 72 75 72 68 60 54 54 53 52 47 43 38 39 22 20 18 19 12 15 21 18
40 41 42 35 26 13 14 16 12 6 8 13 18 18 15 24 19 20 21 24 31 44 57 49 66 68 73 66 63 57 54 44 47 43 35 28 33 16 27 23 15 12 15 11 16
42 42 44 26 17 4 12 15 18 17 10 12 13 16 16 18 23 26 23 24 35 50 59 54 64 62 68 63 61 53 43 44 45 47 37 32 28 21 27 19 12 12 11 16 18
47 45 42 19 9 2 7 12 17 19 15 13 9 13 17 19 23 32 25 20 33 45 61 59 65 48 57 69 62 58 52 49 47 39 31 24 20 15 24 14 15 10 15 18 17
45 47 42 26 12 12 11 15 21 15 15 13 13 9 12 14 22 23 27 26 21 38 56 62 69 48 51 61 59 56 51 50 45 39 36 23 22 15 21 11 16 15 18 15 14
43 46 41 34 18 15 16 15 18 16 14 13 9 7 6 6 10 14 15 27 14 35 49 66 65 51 56 46 62 60 54 50 44 38 34 29 18 14 10 14 19 18 17 13 13
39 40 38 36 26 19 14 14 14 16 12 12 11 6 4 5 10 13 19 18 18 30 39 63 53 56 36 52 53 58 57 56 50 46 37 30 20 13 16 22 20 20 15 14 15
38 36 32 33 31 28 23 18 17 11 12 13 7 7 7 3 7 10 21 18 17 12 38 48 64 45 48 60 63 60 60 59 56 46 40 34 20 20 25 27 24 23 18 15 14
39 37 36 32 29 28 25 26 19 18 14 11 11 8 5 6 9 10 19 23 12 13 26 36 65 47 49 58 60 62 59 57 53 48 41 32 25 29 33 35 29 25 20 16 17
38 38 39 35 31 25 22 21 21 22 18 12 11 12 10 6 9 10 15 25 27 21 21 35 42 62 48 51 54 56 59 50 47 42 36 27 32 38 34 34 31 25 23 21 18

GFSSW_500_spd_033.txt.gz
Wind_Speed
27 29 30 30 31 32 36 40 41 42 48 51 49 56 56 54 50 53 50 48 51 49 48 45 50 50 47 44 39 40 45 46 38 35 28 23 30 26 39 42 38 39 41 46 47
26 28 29 30 31 33 33 35 39 42 44 45 47 50 63 66 59 57 51 49 50 49 48 48 45 45 48 46 48 49 48 47 40 36 32 23 27 22 36 35 38 41 37 35 25
28 29 30 31 32 33 33 35 37 41 44 46 48 51 55 64 72 68 61 57 52 52 48 50 51 50 49 46 44 45 49 46 44 36 39 40 36 40 40 42 39 39 36 45 45
28 29 30 32 34 36 38 39 39 40 41 43 46 48 50 53 59 65 66 69 69 64 64 60 59 59 60 58 50 55 54 50 48 49 48 43 41 43 50 52 49 53 47 47 44
30 32 33 34 36 37 39 39 40 41 42 43 44 45 46 49 50 56 58 63 67 72 73 70 69 66 70 62 58 60 57 55 55 57 57 54 55 59 59 51 54 55 51 53 50
34 35 36 37 38 40 41 43 44 45 46 45 46 47 48 47 49 50 51 53 58 61 67 77 74 66 66 68 65 61 60 63 63 60 57 59 59 58 57 48 53 56 50 52 49
37 39 40 42 43 44 45 46 47 47 49 51 52 51 49 45 51 54 55 55 55 52 54 58 64 70 63 59 54 55 61 62 61 55 53 52 55 53 51 46 49 52 49 50 42
43 44 45 47 49 51 51 52 52 53 52 52 53 55 54 52 54 53 56 58 58 54 53 55 59 59 61 57 58 61 61 60 50 51 52 47 56 52 46 44 43 49 48 48 41
46 48 50 51 53 55 57 58 58 59 59 58 57 57 56 54 57 57 58 57 59 60 60 61 62 62 63 61 63 59 57 49 51 48 47 47 52 46 42 47 47 50 54 47 40
49 53 56 57 59 60 61 63 63 64 64 65 65 62 63 61 61 61 64 62 62 62 62 63 65 65 67 65 60 48 52 57 56 49 45 46 51 42 44 43 44 45 55 45 42
50 53 56 58 61 64 64 66 68 68 67 68 69 68 67 68 67 66 66 65 67 67 64 66 71 65 53 54 50 53 60 58 51 45 40 44 47 49 51 46 45 46 49 40 39
55 59 62 64 66 67 68 69 71 71 70 69 70 71 72 71 74 70 68 67 68 69 72 77 72 48 55 54 57 58 59 53 49 49 44 46 51 41 47 45 45 45 44 39 39
64 67 68 66 66 63 63 62 66 69 74 67 67 69 69 72 72 73 69 70 68 68 71 79 58 62 60 58 61 57 55 49 45 44 46 45 51 49 47 45 45 40 40 44 37
65 61 55 49 52 45 47 45 48 52 67 60 67 66 64 67 68 68 68 70 69 68 70 71 62 67 67 65 59 54 51 47 46 49 52 38 48 41 44 43 40 32 37 29 30
49 40 39 37 34 37 38 40 42 41 50 31 46 50 50 53 56 61 66 67 69 68 68 66 65 67 74 60 57 51 45 48 48 52 44 46 50 36 40 41 30 34 24 29 29
39 40 42 41 40 40 37 38 31 27 23 15 18 16 8 22 28 40 54 64 62 63 67 69 64 67 64 65 64 54 50 48 48 45 50 41 47 42 34 35 36 21 25 28 23
41 45 49 49 40 29 24 17 12 6 8 17 25 25 24 20 15 28 36 43 36 49 61 68 68 69 66 69 66 62 57 49 49 52 53 41 42 41 31 36 23 28 26 23 21
43 48 51 40 18 11 9 11 10 6 15 19 25 21 14 12 15 26 31 32 30 28 48 57 60 66 66 72 66 67 64 61 57 53 45 41 46 36 32 23 28 28 21 21 19
44 46 53 31 17 11 14 9 16 15 8 11 10 18 14 16 21 21 18 28 33 34 39 39 49 56 67 68 71 70 64 55 43 32 33 29 29 32 16 20 26 21 13 18 19
42 43 46 22 19 13 15 11 19 15 15 10 6 11 14 14 18 11 18 27 26 30 36 35 43 58 58 69 72 68 59 53 54 49 38 26 25 22 16 27 21 15 16 17 18
43 41 40 36 18 12 19 18 15 18 14 11 7 9 12 16 20 20 20 22 29 40 27 31 41 43 49 58 69 70 54 59 47 42 34 29 24 23 28 26 20 17 14 20 20
43 41 36 32 29 23 18 19 20 20 15 12 8 6 5 9 13 12 19 21 25 32 36 32 42 33 48 35 62 64 56 53 54 47 33 21 21 18 24 18 21 17 18 19 13
40 37 36 31 28 24 20 18 18 16 12 10 8 5 2 6 5 5 16 16 21 18 31 40 50 47 50 40 49 48 51 48 49 33 36 27 21 24 24 24 18 24 20 15 12
39 38 38 33 26 24 20 20 18 16 13 13 5 3 8 7 7 13 14 12 5 13 27 34 54 52 31 35 39 48 49 45 47 41 33 28 22 20 20 20 24 21 21 15 14
43 40 41 45 32 22 21 18 20 16 12 12 10 7 11 9 10 5 11 11 5 5 17 28 49 50 24 47 46 50 47 47 47 42 33 28 28 15 18 19 23 23 20 17 14
43 43 41 40 41 24 21 19 16 19 16 8 11 13 11 8 8 10 14 11 8 11 11 26 54 53 30 40 46 46 42 45 40 43 31 22 35 25 21 20 21 23 21 18 15
42 41 38 36 38 32 24 19 18 16 17 14 10 11 13 10 14 15 12 12 10 10 8 25 44 60 41 19 45 41 46 43 40 44 46 36 36 37 30 29 32 28 22 19 16

GFSSW_500_spd_036.txt.gz
Wind_Speed
27 27 29 30 33 34 35 39 41 43 50 54 60 61 61 64 62 59 52 48 52 52 58 55 53 49 48 46 44 39 47 52 46 37 33 26 25 20 18 34 30 38 38 38 40
29 29 30 31 33 34 35 36 39 43 46 51 56 57 70 67 60 62 52 54 49 53 53 54 53 58 60 53 52 50 48 45 40 39 37 30 27 34 22 25 28 23 25 32 32
30 31 32 33 34 34 34 36 40 42 43 46 49 50 52 66 75 71 72 71 57 53 54 53 53 52 53 47 48 48 50 42 40 42 42 41 32 28 29 34 31 31 30 31 46
31 32 33 34 35 36 37 38 38 39 41 45 47 49 50 54 61 61 62 65 62 60 58 55 55 53 53 49 47 52 49 44 43 44 45 47 41 38 43 41 38 35 47 53 55
35 36 37 38 39 40 40 40 40 41 42 44 45 47 49 49 50 56 56 64 67 64 65 62 61 57 61 52 49 57 50 49 48 48 48 49 51 52 50 48 50 51 56 58 55
39 40 41 42 43 43 44 45 45 45 45 45 46 47 48 48 50 53 54 55 57 65 77 70 71 67 68 64 63 59 59 57 58 56 53 56 56 55 54 49 55 54 58 47 46
42 43 44 45 46 47 48 49 49 49 49 49 49 49 48 44 51 53 55 52 51 53 60 75 78 75 70 69 67 71 68 66 62 58 58 49 57 59 51 47 48 47 44 47 46
44 45 47 49 51 52 53 53 54 54 54 53 53 53 49 51 54 53 55 55 55 54 53 58 64 68 68 64 63 63 66 68 57 51 42 43 54 44 41 43 42 42 45 41 39
41 44 47 50 53 55 57 59 59 59 59 58 58 56 54 54 56 57 59 56 57 59 58 57 59 60 61 59 60 58 60 56 47 43 46 46 50 40 41 40 40 39 41 43 42
44 46 48 51 55 59 61 63 65 64 65 64 63 61 61 59 60 59 60 61 61 60 60 61 63 66 64 61 60 51 46 40 48 42 45 44 47 38 40 37 38 39 43 37 39
47 51 55 58 62 62 61 62 67 69 68 67 67 67 66 66 64 63 62 62 63 63 62 65 70 64 52 54 51 50 48 53 51 45 46 47 47 39 36 38 36 40 46 42 40
53 58 63 67 67 67 67 63 64 68 68 68 66 67 67 68 70 66 65 65 65 65 67 73 66 45 57 53 57 55 59 59 48 46 45 37 44 40 41 39 36 40 44 37 36
60 61 60 60 55 53 49 50 50 56 69 66 62 66 61 67 67 67 66 67 68 68 69 74 52 61 59 58 61 59 58 49 47 45 45 43 47 44 37 41 43 44 33 38 38
58 57 56 57 55 50 50 45 42 45 57 51 58 55 55 58 62 61 63 64 66 67 68 69 61 63 64 62 63 60 51 53 48 49 52 42 50 40 36 38 38 35 36 37 37
57 51 54 60 57 48 42 37 33 33 28 15 17 30 33 38 43 50 58 59 63 64 64 62 63 67 67 58 63 53 47 48 47 50 51 47 45 24 29 37 34 41 39 37 28
52 49 55 61 41 24 16 12 10 6 2 10 9 9 10 19 25 29 42 51 53 55 60 64 63 65 64 64 68 58 52 50 48 47 45 44 43 30 31 31 36 36 30 27 26
48 47 52 49 30 25 17 14 9 16 11 10 15 16 16 17 10 10 18 23 35 37 53 60 64 64 66 67 64 65 59 56 53 57 54 35 39 40 29 30 39 37 35 32 27
45 44 42 42 24 24 22 18 15 12 16 22 15 24 21 19 20 17 24 20 28 20 34 50 63 64 64 67 64 67 65 63 63 55 53 44 47 38 29 30 28 29 27 22 23
44 40 40 40 36 19 18 18 18 17 14 9 11 22 19 16 25 15 20 22 23 30 38 37 46 56 62 67 67 63 63 53 54 49 39 33 29 40 26 21 24 23 19 16 21
45 41 40 35 29 26 23 18 15 14 11 8 6 19 6 12 10 22 23 23 25 31 41 37 41 46 64 63 70 64 54 58 53 55 46 36 25 19 25 27 31 24 12 15 16
46 44 40 41 27 23 24 20 20 17 14 8 5 4 11 6 20 13 14 18 22 30 33 45 46 32 45 61 67 65 60 55 56 49 51 46 27 12 29 23 24 17 15 16 14
47 48 41 39 33 22 20 20 15 19 15 14 5 10 11 12 5 13 27 32 29 20 27 33 33 37 41 40 42 46 49 54 62 56 49 34 26 28 35 31 32 23 18 16 18
46 45 43 36 40 24 20 17 17 15 10 17 8 6 7 5 10 15 8 13 19 15 21 37 29 33 35 48 52 53 49 57 59 44 43 39 23 28 23 30 26 26 22 21 14
45 47 41 37 35 31 20 18 18 17 13 18 8 5 21 13 10 16 4 16 18 8 11 30 34 26 34 40 48 49 49 45 49 51 42 36 23 28 27 16 22 25 29 23 17
44 46 46 41 34 29 25 21 18 17 18 12 5 11 16 15 13 13 14 15 13 8 13 19 26 46 44 38 48 44 52 45 46 43 48 31 29 13 21 28 32 28 17 20 19
41 44 45 42 37 28 26 25 16 17 17 17 16 13 9 10 12 12 16 13 14 12 13 18 16 32 45 35 51 49 56 54 44 34 42 33 37 20 28 30 26 29 26 23 20
35 39 45 46 41 32 27 27 18 14 19 19 16 16 14 14 16 17 15 14 15 9 9 11 12 23 37 30 12 56 59 54 53 36 43 32 37 32 28 14 32 26 25 23 19

GFSSW_500_spd_042.txt.gz
Wind_Speed
22 23 24 25 26 28 31 33 36 37 36 39 41 44 53 64 63 57 50 44 48 48 46 46 45 47 46 46 45 47 53 47 45 39 34 40 34 37 38 30 24 25 27 26 28
25 26 28 29 31 31 32 33 35 38 40 40 41 42 46 51 52 62 60 53 50 54 53 47 43 45 48 47 50 53 55 49 44 46 43 33 48 29 38 36 36 32 32 24 29
27 28 30 31 32 33 33 34 37 38 39 42 44 45 45 47 49 56 62 68 58 55 52 56 57 54 55 52 52 54 58 49 49 47 47 47 47 43 38 41 38 38 38 36 38
29 31 33 35 37 39 39 40 40 39 41 43 43 46 49 48 52 53 60 70 67 65 61 58 59 65 63 59 55 58 57 55 52 51 48 50 50 45 42 39 35 34 32 40 39
30 31 33 35 38 41 43 44 45 45 46 46 46 46 47 50 47 56 56 59 73 71 66 65 66 69 65 59 59 66 64 60 62 60 58 53 52 55 44 39 34 32 30 35 40
29 30 31 33 35 37 39 43 47 49 50 51 51 50 49 47 54 57 57 58 62 74 73 71 71 66 69 72 70 67 68 62 62 61 58 61 56 48 43 33 40 40 36 38 42
24 26 28 30 34 37 40 43 45 47 51 54 56 56 53 53 57 56 60 59 59 62 70 73 71 76 74 76 73 71 71 67 68 69 66 57 59 50 35 41 44 46 45 41 41
28 30 33 36 39 44 48 51 52 55 55 55 57 59 59 61 59 59 60 58 60 60 60 62 64 65 66 75 76 73 70 69 62 64 60 52 52 38 41 43 44 47 46 34 29
27 28 31 34 37 40 44 49 54 58 63 64 63 60 59 62 65 63 62 61 61 60 62 62 62 61 65 66 74 79 71 65 58 56 56 58 47 44 43 41 41 43 39 33 31
29 32 36 43 48 53 57 61 64 68 71 69 69 68 69 68 67 67 65 65 64 63 63 64 64 63 61 64 65 65 66 58 57 55 56 60 58 55 44 39 40 36 29 30 26
33 37 42 46 50 52 58 63 70 70 68 70 72 72 70 74 71 68 69 66 68 66 66 67 67 62 55 56 53 55 58 56 54 53 50 50 48 43 35 38 37 29 27 29 25
34 38 42 47 51 55 60 65 61 61 46 30 49 58 67 70 75 71 70 69 71 70 70 69 64 56 55 57 57 57 56 53 50 46 40 39 43 42 37 38 33 25 29 26 27
37 40 42 48 52 60 61 53 45 48 26 10 11 22 35 55 70 70 69 69 71 71 70 68 60 60 60 60 59 56 56 52 51 48 43 45 51 42 34 35 31 28 25 26 31
40 43 45 49 53 59 53 44 34 27 28 27 10 11 13 21 38 40 54 64 66 66 69 67 62 63 62 62 63 62 56 53 52 50 48 44 55 44 31 32 30 28 25 30 28
39 43 47 49 55 56 47 38 33 30 37 29 16 6 5 8 12 21 41 51 56 62 65 61 65 66 66 64 66 57 59 58 56 53 51 51 54 32 31 31 26 22 29 28 19
38 43 47 51 56 56 43 31 31 28 26 24 20 19 9 8 16 14 23 36 42 50 60 60 61 62 64 63 64 61 62 61 60 56 61 49 48 23 28 23 19 24 24 21 19
37 42 46 51 53 51 38 25 29 27 22 20 21 18 14 3 12 14 7 11 21 27 48 53 57 59 60 62 63 63 62 62 62 65 54 46 48 23 24 16 22 25 21 19 17
37 40 45 49 52 48 32 25 25 23 23 19 17 10 8 11 13 19 6 13 14 16 31 42 50 56 59 63 62 63 62 62 64 62 55 54 50 34 29 21 23 26 18 20 20
36 38 42 47 50 46 28 25 22 22 21 13 7 12 12 12 21 15 8 10 14 13 22 23 41 47 52 57 63 59 65 61 62 61 61 55 49 40 33 22 28 17 22 20 21
34 36 39 43 48 47 27 26 19 20 16 18 15 14 10 11 15 24 17 20 20 25 28 27 36 35 43 54 60 58 57 59 62 61 62 56 50 41 32 29 27 21 20 19 11
32 34 36 41 48 47 28 24 18 18 17 18 14 15 7 8 5 11 11 16 16 24 27 21 31 36 36 41 50 58 57 59 58 62 63 57 52 42 29 34 29 27 13 9 8
30 33 36 39 45 47 34 24 20 16 19 19 17 11 6 5 13 9 13 15 21 14 12 19 22 25 31 41 49 54 59 62 62 62 60 59 52 45 32 40 40 28 14 16 8
28 31 34 39 43 43 35 29 22 15 15 14 14 12 11 10 6 10 13 10 13 12 19 15 20 22 20 35 50 52 58 62 65 61 63 62 51 37 36 37 37 34 18 17 11
30 28 30 37 41 42 38 26 23 18 14 16 15 12 9 14 21 17 16 19 17 13 11 12 11 17 18 25 43 53 55 60 66 67 61 60 50 35 42 39 38 29 9 9 12
30 29 30 32 35 38 38 35 25 20 16 14 12 11 11 13 18 20 20 20 17 20 17 15 15 14 10 22 40 55 54 59 66 66 67 53 46 44 40 29 30 25 15 12 13
35 25 25 29 32 35 36 35 30 26 18 15 15 13 16 15 17 19 22 21 13 19 15 14 12 10 4 16 24 46 48 54 61 66 62 57 50 46 37 44 38 29 17 16 16
38 32 27 27 28 33 34 35 34 25 22 18 16 12 14 16 19 15 14 15 15 11 10 9 11 5 1 5 15 36 45 49 53 62 62 59 54 47 47 44 38 31 20 18 18

GFSSW_500_spd_045.txt.gz
Wind_Speed
19 21 22 23 25 27 30 32 34 36 37 40 41 43 43 44 45 55 63 54 49 47 50 47 47 48 47 46 46 48 51 47 44 41 38 46 47 45 47 45 43 43 40 32 31
19 20 22 24 25 27 29 31 33 35 37 40 42 43 44 44 44 48 63 64 54 54 48 54 49 49 50 50 51 54 52 45 41 40 41 51 49 45 40 38 37 39 41 41 38
23 24 26 28 29 31 31 32 33 35 38 41 42 42 46 47 46 47 57 68 67 61 55 50 57 58 55 51 57 59 59 45 45 42 42 44 48 48 44 43 38 39 41 41 39
22 24 26 28 31 33 35 36 37 39 40 42 44 45 46 45 49 52 53 63 72 70 66 63 56 60 58 58 55 59 57 51 45 45 46 47 48 55 53 52 44 44 38 41 39
23 24 26 28 30 31 32 34 37 40 43 45 47 48 48 48 46 57 57 58 66 68 69 76 67 61 59 58 57 58 56 53 49 48 49 53 57 56 54 48 47 47 51 42 38
20 22 23 25 27 28 29 32 36 40 43 46 49 51 52 51 57 55 57 59 62 68 73 70 78 70 66 61 59 62 61 60 58 57 58 60 56 56 56 49 54 53 46 37 37
19 22 25 27 31 33 36 37 39 43 47 50 52 51 52 58 62 60 62 59 61 63 63 67 71 74 76 70 66 65 67 66 63 59 62 60 66 62 53 50 49 49 46 36 37
25 24 26 27 28 30 33 36 40 45 49 51 54 58 58 63 64 66 66 64 63 62 61 62 64 66 77 78 75 75 76 75 69 70 69 61 65 60 51 54 49 46 44 44 44
27 28 28 29 31 34 37 42 47 52 56 58 61 62 64 70 70 69 70 69 69 66 63 64 64 65 64 74 80 77 71 70 69 66 69 69 59 53 49 52 47 44 42 43 43
29 31 33 34 36 40 45 48 55 63 68 73 76 77 76 74 75 76 72 73 72 71 68 66 65 66 65 66 70 73 69 70 71 71 70 69 59 56 49 47 46 47 48 43 39
32 35 38 39 40 43 47 52 55 61 68 76 76 69 75 63 75 75 78 76 75 76 74 71 69 65 59 59 59 63 66 68 67 66 60 66 63 59 60 54 51 49 48 41 34
34 36 40 42 44 47 52 57 61 67 69 55 48 46 33 28 46 62 76 78 78 78 78 76 70 61 59 61 61 61 61 60 59 57 55 52 56 55 53 49 44 39 37 33 27
35 37 41 43 47 51 55 59 64 67 44 39 42 44 32 32 25 39 55 66 74 77 79 76 67 65 64 64 62 60 61 59 57 54 52 52 56 51 43 40 36 31 30 28 30
35 39 39 43 47 51 54 59 64 47 33 39 39 28 27 28 24 21 38 41 53 60 69 73 70 68 67 66 65 64 59 56 57 55 55 49 57 50 36 36 34 31 25 25 31
35 37 39 42 47 52 53 60 51 34 36 35 32 24 19 18 16 16 23 34 46 51 58 61 68 67 62 63 65 59 60 60 59 56 55 50 58 39 36 35 29 26 23 28 28
35 36 38 40 45 49 53 57 38 31 34 33 24 20 18 17 12 11 13 20 31 41 44 51 55 58 62 63 64 61 63 60 60 60 61 52 53 38 31 29 30 27 32 32 33
35 35 36 38 44 47 53 51 31 29 28 26 19 16 13 15 13 12 5 9 18 25 42 47 50 58 58 61 60 62 64 61 60 62 57 53 55 29 28 33 25 31 34 31 22
33 33 35 37 41 45 50 41 28 27 20 18 22 17 13 9 14 13 7 8 9 12 19 28 40 48 55 60 58 61 61 60 62 60 55 52 51 31 31 29 26 32 28 22 19
32 30 32 35 39 42 47 40 28 25 19 21 18 16 13 15 13 16 11 9 8 5 11 13 24 37 42 50 57 57 61 57 57 58 55 51 45 40 38 33 27 22 22 17 21
31 28 30 32 36 39 44 40 29 27 20 24 22 18 14 9 9 14 21 15 15 12 12 16 18 24 33 43 52 54 54 55 59 57 58 52 47 41 39 32 25 22 25 24 20
32 29 29 30 34 39 40 38 30 26 20 22 21 18 15 7 10 5 13 16 17 18 19 23 24 22 25 33 42 51 54 58 59 58 58 54 49 43 41 34 30 36 28 22 20
35 32 28 28 33 38 40 40 31 28 20 20 20 19 15 9 9 10 8 10 13 19 19 17 26 30 22 25 33 42 53 58 61 60 60 58 52 50 45 30 35 29 27 23 20
34 33 31 30 30 31 35 38 35 27 24 18 18 19 16 13 13 9 9 12 10 12 18 21 21 17 18 27 36 43 50 55 61 62 63 64 53 52 49 41 39 32 28 30 24
35 35 31 27 30 33 32 32 31 30 25 19 19 17 15 13 20 22 22 16 20 18 15 15 15 15 13 19 32 44 49 54 62 67 63 65 56 55 45 28 42 40 37 32 27
37 36 35 30 27 30 31 30 33 30 24 20 17 21 19 12 13 19 20 18 20 20 20 16 11 11 11 16 24 39 49 56 63 65 69 59 58 52 41 36 42 46 43 36 25
38 35 36 32 27 27 29 28 30 31 31 19 16 17 17 17 19 13 13 16 19 16 23 20 8 11 14 16 13 28 44 55 61 65 63 59 56 51 38 46 44 43 37 28 26
37 36 35 35 26 24 26 30 30 31 33 24 16 11 14 18 23 19 13 11 10 8 14 12 13 15 11 12 18 17 28 48 58 61 60 58 54 51 46 50 47 41 36 30 26

GFSSW_500_spd_048.txt.gz
Wind_Speed
14 16 17 19 21 24 26 29 32 33 35 37 38 39 40 40 40 44 48 62 56 54 53 48 49 46 46 47 47 46 46 43 41 41 39 41 41 41 41 42 41 40 42 42 44
17 18 19 21 23 25 27 28 29 30 32 35 37 38 42 43 45 45 46 49 62 61 58 56 51 53 50 50 52 52 51 43 42 41 41 43 47 47 49 47 47 48 47 47 42
19 20 22 23 24 26 27 29 31 32 34 36 38 39 39 42 47 50 51 52 51 61 69 62 57 53 58 53 56 56 58 46 43 44 45 49 53 51 52 52 49 48 43 39 36
19 20 21 23 25 26 28 29 30 32 35 37 40 41 42 43 44 48 51 53 52 53 62 68 66 61 58 61 54 58 57 51 46 47 49 51 52 55 54 52 49 47 44 42 43
15 15 16 17 19 21 23 25 28 31 33 36 39 41 43 46 51 52 49 51 53 56 58 67 72 70 66 60 57 60 59 55 50 48 50 53 58 54 59 55 51 51 48 47 46
14 16 19 22 24 26 29 30 32 35 37 38 39 40 42 48 52 54 56 55 54 55 59 61 66 79 75 69 64 62 65 58 54 52 50 56 56 59 60 54 53 54 53 50 48
18 20 22 23 26 27 29 31 33 34 37 39 41 43 47 53 55 55 58 60 62 60 57 60 61 65 79 80 73 67 65 63 61 54 56 53 61 62 56 51 54 52 51 53 52
20 22 24 26 28 31 32 33 35 37 40 44 46 47 52 54 56 59 60 63 65 65 62 63 64 66 67 75 79 78 75 72 61 60 63 61 66 62 56 52 53 55 55 55 53
23 25 27 29 32 35 37 40 42 45 47 50 52 56 62 66 68 66 63 65 70 69 68 70 69 67 68 71 74 77 73 80 71 62 62 68 63 59 59 57 58 57 55 55 53
27 28 29 32 34 37 39 43 47 50 53 57 62 66 70 74 80 82 82 76 72 74 74 75 74 71 70 72 75 74 71 70 81 73 71 69 74 66 64 60 57 58 55 51 49
28 31 32 33 35 38 42 44 48 52 56 62 66 75 80 81 75 70 85 88 83 76 78 79 80 76 65 63 62 65 68 69 66 76 78 75 72 67 64 62 58 56 53 46 42
30 30 33 34 37 38 41 45 50 53 60 64 71 67 58 52 50 47 49 56 67 69 74 81 81 71 71 67 64 64 66 64 62 59 71 77 71 67 65 57 53 49 49 47 43
31 31 33 35 38 40 43 47 50 55 59 64 58 50 48 49 46 31 30 36 38 54 63 76 77 76 74 71 69 66 66 64 62 58 59 61 67 63 59 56 50 45 40 38 38
28 31 30 35 37 40 43 46 49 53 58 57 46 45 41 31 26 23 31 31 29 38 44 60 71 77 77 75 72 70 66 63 61 59 57 57 66 58 50 49 46 35 27 28 32
30 30 32 33 36 39 42 44 48 53 54 47 41 36 34 28 18 21 25 25 18 30 38 47 59 70 74 75 74 69 66 63 61 58 56 56 60 53 42 43 33 25 24 27 30
32 31 32 34 36 38 41 43 47 49 40 38 34 31 29 26 20 23 24 12 13 20 30 37 45 60 69 68 71 68 66 66 64 62 61 53 55 50 38 33 29 31 28 28 32
32 33 33 34 34 36 39 42 46 43 39 36 30 29 28 24 21 17 9 11 15 14 22 34 37 40 51 64 62 66 65 62 63 64 58 55 54 41 31 34 31 30 30 32 31
34 34 33 34 34 35 38 41 42 40 32 30 28 26 26 22 18 21 12 2 7 7 6 17 31 35 38 49 58 63 64 64 65 62 57 51 54 42 32 32 28 17 33 34 34
35 33 34 33 34 33 36 39 40 38 34 28 25 25 22 20 22 17 13 10 8 7 7 9 14 27 38 40 38 52 61 56 59 63 59 56 43 38 37 35 27 26 22 33 30
38 34 34 35 35 32 31 36 38 38 34 31 27 27 23 16 15 15 17 13 16 11 3 4 10 18 14 31 38 40 47 52 56 57 58 53 45 41 38 39 29 32 31 25 20
41 38 36 35 32 33 31 32 35 36 32 31 27 27 25 19 13 12 12 12 13 15 13 8 10 12 16 18 25 38 45 49 52 53 56 53 48 44 42 41 33 33 37 32 27
42 39 37 36 33 32 34 33 34 36 36 30 24 27 25 21 10 12 9 11 11 12 12 13 12 11 15 19 26 34 43 49 52 52 54 54 52 51 47 43 32 36 35 27 19
42 41 38 35 34 29 30 32 34 37 37 30 26 23 23 20 16 14 14 13 13 15 13 14 17 16 16 23 25 28 35 43 50 56 57 59 53 52 50 43 34 33 38 30 28
41 43 41 37 36 32 27 29 32 35 37 31 23 23 19 14 19 11 21 25 25 22 16 16 13 17 17 23 29 32 32 38 50 58 60 63 56 54 51 37 32 35 32 26 29
42 42 42 39 37 36 28 28 31 33 33 28 21 20 19 17 16 15 19 18 17 16 18 19 12 11 12 15 19 29 36 39 50 57 64 57 61 59 50 40 35 39 34 28 30
42 41 40 40 35 37 29 26 28 30 30 27 18 16 20 22 26 19 19 17 14 16 14 18 14 14 12 16 19 22 29 42 47 57 59 60 62 58 48 49 39 44 41 38 33
38 38 36 38 35 34 29 27 28 28 26 23 19 17 21 24 26 25 16 17 9 11 14 17 15 18 13 20 24 16 16 27 44 53 59 62 60 58 52 45 45 45 42 41 37